Tracking 17925 objects as of 21-January-2017
HD Live streaming from Space Station
objects crossing your sky now

TEAMSAT

Track TEAMSAT now!
10-day predictions
TEAMSAT is classified as:


NORAD ID: 25025
Int'l Code: 1997-066C
Perigee: 592.3 km
Apogee: 26,578.4 km
Inclination: 7.7 °
Period: 467.6 minutes
Semi major axis: 19956 km
RCS: 0.5073 m2 (medium)
Launch date: October 30, 1997
Source: European Space Agency (ESA)
Launch site: FRENCH GUIANA (FRGUI)
Your satellite tracking list
Your tracking list is empty





NASA's NSSDC Master Catalog

Two Line Element Set (TLE):
1 25025U 97066C   17020.62882376  .00000037  00000-0  32899-3 0  9998
2 25025   7.6698 121.4783 6510732 288.0680 130.2109  3.07950219216375
Source of the keplerian elements: AFSPC